[[{"header":{"parameterUnit":"m.s-1","parameterCategory":1,"la1":30.2991,"la2":30.254,"lo1":-89.0895,"lo2":-89.0444,"dy":0.0017,"dx":0.0017,"nx":28,"ny":28,"refTime":"2024-12-22T09:00:00:Z","depth":0,"parameterNumber":2,"parameterNumberName":"U-component_of_WINDS"},"data":[0,0,0,0,0,0,0,0,0,0,0,0,0,0,0,0,0,0,0,0,0,0,0,0,0,0,0,0,0,0,0,0,0,0,0,0,0,0,0,0,0,0,0,0,0,0,0,0,0,0,0,0,0,0,0,0,0,0,-2.6532,-2.6532,0,-2.657,-2.657,-2.657,-2.6487,-2.6485,-2.6482,-2.6479,-2.652,-2.6524,-2.6527,0,0,0,0,0,0,0,0,0,0,0,0,0,-2.6388,-2.6391,-2.6531,-2.6532,-2.6532,-2.6569,-2.657,-2.6571,-2.6488,-2.6484,-2.6481,-2.6478,-2.6519,-2.6523,-2.6527,0,0,0,0,0,0,0,0,0,0,0,0,0,-2.6441,-2.6392,-2.6531,-2.6496,-2.6493,-2.6569,-2.657,-2.6571,-2.6488,-2.6484,-2.648,-2.6477,-2.6517,-2.6523,-2.6528,-2.6642,0,0,-2.6544,-2.6547,0,0,0,0,0,0,0,0,-2.6438,-2.6446,-2.65,-2.6498,-2.6495,-2.6519,-2.6534,-2.6595,-2.6489,-2.649,-2.6479,-2.6475,-2.6523,-2.6528,-2.6544,-2.6644,-2.6645,-2.6545,-2.6548,-2.655,-2.6552,0,0,0,0,0,0,0,-2.6435,-2.6444,-2.6547,-2.6501,-2.6498,-2.6478,-2.6481,-2.6545,-2.6529,-2.649,-2.6484,-2.6489,-2.6521,-2.6539,-2.6544,-2.6646,-2.6545,-2.6549,-2.6553,-2.6555,-2.6842,-2.6846,0,0,0,0,0,0,-2.6435,-2.6442,-2.6545,-2.6548,-2.6456,-2.6484,-2.6487,-2.6516,-2.6528,-2.6526,-2.6493,-2.6485,-2.6532,-2.6538,-2.6545,-2.6681,-2.655,-2.6555,-2.6559,-2.6838,-2.6843,-2.6848,0,0,0,0,0,0,-2.6433,-2.6445,-2.6544,-2.6493,-2.6504,-2.6491,-2.6523,-2.6519,-2.6536,-2.653,-2.6527,-2.6514,-2.6529,-2.6538,-2.6618,-2.6681,-2.6558,-2.6563,-2.6832,-2.6839,-2.6845,-2.6951,0,0,0,0,0,0,-2.6429,-2.6445,-2.6488,-2.6495,-2.6507,-2.6616,-2.6527,-2.6522,-2.6546,-2.6536,-2.6549,-2.6548,-2.6526,-2.6611,-2.6624,-2.6686,-2.6567,-2.6827,-2.6835,-2.6843,-2.6942,-2.6961,-2.6977,0,0,0,0,0,-2.6424,-2.6516,-2.649,-2.6503,-2.656,-2.662,-2.6627,-2.6601,-2.6551,-2.6594,-2.659,-2.6547,-2.6671,-2.662,-2.6634,-2.6698,-2.6823,-2.6833,-2.6843,-2.6935,-2.6957,-2.6976,0,0,0,0,0,0,-2.6518,-2.6517,-2.6488,-2.6585,-2.6603,-2.6606,-2.666,-2.6625,-2.6658,-2.6648,-2.6614,-2.6617,-2.6705,-2.6709,-2.6652,-2.681,-2.6739,-2.6752,-2.6804,-2.6825,-2.6842,-2.6841,-2.6571,0,0,0,0,0,-2.6549,-2.6597,-2.6594,-2.668,-2.6691,-2.6674,-2.6699,-2.6676,-2.6694,-2.6702,-2.6703,-2.6723,-2.6766,-2.6796,-2.6835,-2.6942,-2.6944,-2.6993,-2.701,-2.7024,-2.7037,-2.7095,-2.7117,-2.688,-2.688,-2.688,0,0,-2.6616,-2.6621,-2.6654,-2.6699,-2.671,-2.6762,-2.6681,-2.6738,-2.6777,-2.671,-2.6787,-2.6789,-2.6808,-2.6903,-2.6945,-2.6909,-2.7102,-2.7037,-2.7048,-2.7053,-2.7107,-2.713,-2.715,-2.6887,-2.6886,-2.6885,0,0,-2.6764,-2.6772,-2.6845,-2.6858,-2.6877,-2.6865,-2.6882,-2.689,-2.6889,-2.6965,-2.6917,-2.6962,-2.7037,-2.7053,-2.7071,-2.7225,-2.7187,-2.7238,-2.7329,-2.7386,-2.7405,-2.7421,-2.7478,-2.7498,-2.725,-2.7251,-2.7251,0,-2.6845,-2.692,-2.6887,-2.6949,-2.6971,-2.6912,-2.6987,-2.7001,-2.7032,-2.7048,-2.7007,-2.7101,-2.711,-2.7208,-2.7245,-2.7261,-2.7281,-2.7238,-2.7404,-2.742,-2.7435,-2.7489,-2.751,-2.7257,-2.7256,-2.7255,-2.7255,0,-2.7019,-2.7072,-2.7128,-2.7159,-2.7187,-2.7255,-2.7234,-2.7266,-2.7241,-2.7233,-2.7312,-2.732,-2.7361,-2.7382,-2.7358,-2.7477,-2.7455,-2.741,-2.7338,-2.7465,-2.7515,-2.7535,-2.7266,-2.7264,-2.7262,-2.726,0,0,-2.7229,-2.724,-2.7262,-2.7276,-2.7291,-2.7332,-2.7396,-2.7436,-2.7465,-2.7487,-2.7542,-2.7607,-2.7565,-2.7586,-2.7563,-2.7613,-2.7736,-2.7561,-2.7561,-2.7595,-2.7869,-2.7905,-2.7929,-2.771,-2.7713,-2.7716,-2.7868,0,-2.7377,-2.7488,-2.7461,-2.7572,-2.7621,-2.7566,-2.7623,-2.7639,-2.7633,-2.7674,-2.7668,-2.7715,-2.7656,-2.7668,-2.7715,-2.7711,-2.7791,-2.7699,-2.7762,-2.7764,-2.7761,-2.7955,-2.7992,-2.8136,-2.7887,-2.7891,-2.7893,0,-2.7565,-2.7595,-2.7711,-2.7719,-2.7738,-2.779,-2.7824,-2.7863,-2.788,-2.7873,-2.7896,-2.7863,-2.7928,-2.7854,-2.7944,-2.7883,-2.7906,-2.7908,-2.7913,-2.792,-2.7838,-2.7969,-2.818,-2.8203,-2.7923,-2.7921,-2.7919,0,-2.7709,-2.7778,-2.7856,-2.7869,-2.788,-2.7918,-2.7924,-2.7937,-2.7963,-2.7992,-2.8009,-2.8045,-2.8066,-2.8096,-2.8074,-2.8022,-2.8168,-2.8092,-2.8165,-2.8166,-2.82,-2.8199,-2.8421,-2.8212,-2.8212,-2.8211,-2.8211,0,-2.7878,-2.7952,-2.7921,-2.797,-2.8051,-2.8018,-2.81,-2.81,-2.8112,-2.816,-2.8113,-2.816,-2.8127,-2.8171,-2.8154,-2.8232,-2.8241,-2.8238,-2.8233,-2.8244,-2.8244,-2.826,-2.8251,-2.8217,-2.8216,-2.8215,-2.8214,0,-2.8054,-2.8036,-2.8118,-2.8122,-2.8124,-2.8184,-2.8187,-2.8232,-2.8223,-2.8284,-2.8297,-2.8283,-2.8332,-2.8312,-2.8364,-2.8353,-2.8453,-2.8434,-2.8448,-2.8444,-2.8518,-2.8513,-2.876,-2.8792,-2.8561,-2.8563,-2.8565,0,-2.8164,-2.822,-2.8229,-2.8258,-2.8267,-2.8314,-2.834,-2.831,-2.8338,-2.8362,-2.8405,-2.845,-2.8484,-2.8565,-2.856,-2.86,-2.8582,-2.8666,-2.8588,-2.8597,-2.8586,-2.8584,-2.859,-2.8683,-2.8686,-2.8688,-2.869,0,-2.8363,-2.8352,-2.839,-2.8426,-2.8458,-2.8485,-2.8508,-2.8534,-2.8505,-2.854,-2.8589,-2.8616,-2.8669,-2.8715,-2.875,-2.8756,-2.872,-2.8714,-2.8733,-2.8746,-2.8752,-2.8752,-2.8493,-2.8709,-2.8707,-2.8706,-2.8705,-2.8704,-2.8511,-2.8558,-2.8572,-2.8617,-2.8631,-2.8653,-2.8697,-2.8692,-2.8733,-2.8773,-2.8753,-2.8811,-2.8826,-2.887,-2.8882,-2.8927,-2.8894,-2.8922,-2.8929,-2.8937,-2.8948,-2.8743,-2.8933,-2.8932,-2.8932,-2.8931,-2.8931,0,-2.8709,-2.8715,-2.8757,-2.879,-2.8826,-2.8786,-2.8809,-2.8842,-2.8893,-2.891,-2.8945,-2.9002,-2.9046,-2.9044,-2.9084,-2.9121,-2.9105,-2.9133,-2.9131,-2.9134,-2.8974,-2.8954,-2.9145,-2.9145,-2.9145,-2.9145,-2.9145,-2.9145,-2.8817,-2.8895,-2.8885,-2.897,-2.8975,-2.9031,-2.9048,-2.9069,-2.9082,-2.9148,-2.9184,-2.9182,-2.9192,-2.9233,-2.9272,-2.927,-2.9288,-2.9323,-2.9315,-2.9166,-2.9145,-2.9125,-2.9106,-2.9326,-2.9327,-2.9471,-2.9473,-2.9474]},{"header":{"parameterUnit":"m.s-1","parameterCategory":1,"la1":30.2991,"la2":30.254,"lo1":-89.0895,"lo2":-89.0444,"dy":0.0017,"dx":0.0017,"nx":28,"ny":28,"refTime":"2024-12-22T09:00:00:Z","depth":0,"parameterNumber":3,"parameterNumberName":"V-component_of_WINDS"},"data":[0,0,0,0,0,0,0,0,0,0,0,0,0,0,0,0,0,0,0,0,0,0,0,0,0,0,0,0,0,0,0,0,0,0,0,0,0,0,0,0,0,0,0,0,0,0,0,0,0,0,0,0,0,0,0,0,0,0,-3.9312,-3.9312,0,-3.9342,-3.9343,-3.9343,-3.9287,-3.9285,-3.9283,-3.9282,-3.9311,-3.9313,-3.9316,0,0,0,0,0,0,0,0,0,0,0,0,0,-3.9201,-3.9204,-3.9312,-3.9312,-3.9312,-3.9342,-3.9343,-3.9343,-3.9287,-3.9285,-3.9283,-3.9281,-3.931,-3.9313,-3.9316,0,0,0,0,0,0,0,0,0,0,0,0,0,-3.9242,-3.9204,-3.9311,-3.9288,-3.9286,-3.9342,-3.9343,-3.9343,-3.9288,-3.9285,-3.9282,-3.928,-3.9309,-3.9313,-3.9316,-3.9396,0,0,-3.9328,-3.933,0,0,0,0,0,0,0,0,-3.924,-3.9246,-3.9291,-3.929,-3.9288,-3.9308,-3.9315,-3.9361,-3.9289,-3.9287,-3.9281,-3.9278,-3.9312,-3.9315,-3.9327,-3.9397,-3.9398,-3.9328,-3.9331,-3.9332,-3.9333,0,0,0,0,0,0,0,-3.9237,-3.9245,-3.9324,-3.9292,-3.929,-3.9275,-3.9278,-3.9323,-3.9315,-3.9287,-3.9283,-3.9288,-3.9311,-3.9324,-3.9327,-3.9399,-3.9328,-3.9332,-3.9334,-3.9335,-3.9534,-3.9537,0,0,0,0,0,0,-3.9238,-3.9243,-3.9323,-3.9325,-3.9257,-3.9279,-3.9282,-3.9304,-3.9314,-3.9313,-3.929,-3.9285,-3.9319,-3.9323,-3.9328,-3.9421,-3.9332,-3.9336,-3.9338,-3.9531,-3.9535,-3.9538,0,0,0,0,0,0,-3.9236,-3.9245,-3.9321,-3.9283,-3.9291,-3.9284,-3.9309,-3.9306,-3.932,-3.9316,-3.9314,-3.9305,-3.9317,-3.9323,-3.9379,-3.9422,-3.9337,-3.9341,-3.9528,-3.9532,-3.9537,-3.9609,0,0,0,0,0,0,-3.9233,-3.9245,-3.9276,-3.9284,-3.9294,-3.9373,-3.9312,-3.9309,-3.9327,-3.932,-3.933,-3.9329,-3.9315,-3.9374,-3.9383,-3.9425,-3.9344,-3.9524,-3.953,-3.9535,-3.9603,-3.9615,-3.9626,0,0,0,0,0,-3.9229,-3.9295,-3.9278,-3.9288,-3.9332,-3.9376,-3.9381,-3.9364,-3.933,-3.9361,-3.9358,-3.9329,-3.9416,-3.938,-3.939,-3.9434,-3.9521,-3.9528,-3.9535,-3.9597,-3.9613,-3.9626,0,0,0,0,0,0,-3.9291,-3.9295,-3.9277,-3.9347,-3.9362,-3.9366,-3.9404,-3.9381,-3.9405,-3.9398,-3.9375,-3.9378,-3.9439,-3.9442,-3.9402,-3.9511,-3.9462,-3.9472,-3.9507,-3.9521,-3.9533,-3.9531,-3.9347,0,0,0,0,0,-3.9313,-3.9349,-3.935,-3.9412,-3.9421,-3.9411,-3.943,-3.9415,-3.9429,-3.9435,-3.9437,-3.945,-3.9481,-3.9501,-3.9529,-3.9603,-3.9603,-3.9638,-3.9649,-3.9659,-3.9667,-3.9706,-3.9721,-3.9561,-3.956,-3.956,0,0,-3.9359,-3.9366,-3.939,-3.9425,-3.9435,-3.9471,-3.9417,-3.9458,-3.9485,-3.9441,-3.9494,-3.9496,-3.951,-3.9575,-3.9604,-3.958,-3.9711,-3.9668,-3.9675,-3.9678,-3.9714,-3.9729,-3.9743,-3.9565,-3.9564,-3.9564,0,0,-3.9461,-3.947,-3.9522,-3.9533,-3.9549,-3.9542,-3.9554,-3.9563,-3.9562,-3.9616,-3.9583,-3.9614,-3.9667,-3.9678,-3.969,-3.9796,-3.9769,-3.9805,-3.9867,-3.9905,-3.9917,-3.9928,-3.9966,-3.9979,-3.9814,-3.9814,-3.9814,0,-3.9516,-3.9571,-3.9552,-3.9596,-3.9612,-3.9574,-3.9626,-3.9637,-3.9661,-3.9672,-3.9645,-3.971,-3.9716,-3.9784,-3.9809,-3.9821,-3.9834,-3.9804,-3.9917,-3.9928,-3.9938,-3.9973,-3.9988,-3.9818,-3.9818,-3.9817,-3.9817,0,-3.9637,-3.9676,-3.9716,-3.974,-3.9761,-3.9809,-3.9796,-3.9819,-3.9803,-3.9798,-3.9853,-3.9859,-3.9887,-3.9902,-3.9886,-3.9967,-3.9951,-3.9921,-3.9872,-3.9958,-3.9991,-4.0004,-3.9824,-3.9823,-3.9821,-3.982,0,0,-3.978,-3.9793,-3.9808,-3.9818,-3.9832,-3.9861,-3.9907,-3.9935,-3.9955,-3.9972,-4.0009,-4.0054,-4.0026,-4.004,-4.0025,-4.0058,-4.0141,-4.0024,-4.0023,-4.0045,-4.023,-4.0253,-4.0269,-4.0123,-4.0126,-4.0128,-4.0228,0,-3.9881,-3.9961,-3.9945,-4.0022,-4.0057,-4.0021,-4.0061,-4.0073,-4.007,-4.0098,-4.0094,-4.0127,-4.0088,-4.0096,-4.0127,-4.0124,-4.0178,-4.0117,-4.0157,-4.0159,-4.0155,-4.0286,-4.031,-4.0405,-4.0241,-4.0243,-4.0245,0,-4.001,-4.0033,-4.0114,-4.0122,-4.0136,-4.0172,-4.0196,-4.0224,-4.0237,-4.0232,-4.0248,-4.0226,-4.027,-4.0221,-4.0281,-4.024,-4.0255,-4.0256,-4.0259,-4.0262,-4.0207,-4.0292,-4.0435,-4.0449,-4.0265,-4.0263,-4.0262,0,-4.0106,-4.0157,-4.0212,-4.0222,-4.0232,-4.0258,-4.0264,-4.0273,-4.0291,-4.0312,-4.0323,-4.0348,-4.0362,-4.0382,-4.0367,-4.0332,-4.0429,-4.0379,-4.0426,-4.0427,-4.0448,-4.0447,-4.0595,-4.0458,-4.0458,-4.0458,-4.0458,0,-4.0221,-4.0272,-4.0255,-4.0289,-4.0345,-4.0325,-4.038,-4.0381,-4.039,-4.0423,-4.0393,-4.0424,-4.0403,-4.0432,-4.042,-4.0471,-4.0478,-4.0475,-4.0471,-4.0478,-4.0478,-4.0487,-4.048,-4.0462,-4.0461,-4.046,-4.046,0,-4.0338,-4.0328,-4.0386,-4.0391,-4.0394,-4.0434,-4.0438,-4.0469,-4.0464,-4.0505,-4.0514,-4.0505,-4.0538,-4.0525,-4.0559,-4.0552,-4.0617,-4.0605,-4.0613,-4.061,-4.0658,-4.0654,-4.0818,-4.0838,-4.0688,-4.069,-4.0691,0,-4.0412,-4.045,-4.046,-4.048,-4.0488,-4.052,-4.0538,-4.052,-4.054,-4.0557,-4.0585,-4.0615,-4.0638,-4.0692,-4.0688,-4.0714,-4.0702,-4.0758,-4.0706,-4.0711,-4.0703,-4.0701,-4.0704,-4.0768,-4.077,-4.0771,-4.0772,0,-4.0544,-4.0537,-4.0565,-4.0591,-4.0614,-4.0633,-4.065,-4.0668,-4.065,-4.0673,-4.0707,-4.0725,-4.076,-4.079,-4.0813,-4.0817,-4.0792,-4.0789,-4.0801,-4.0808,-4.0811,-4.081,-4.0642,-4.0785,-4.0784,-4.0783,-4.0782,-4.0782,-4.0642,-4.0674,-4.0686,-4.0717,-4.0728,-4.0744,-4.0773,-4.0771,-4.0799,-4.0827,-4.0814,-4.0852,-4.0863,-4.0891,-4.0899,-4.0928,-4.0906,-4.0924,-4.0929,-4.0933,-4.094,-4.0807,-4.0932,-4.0932,-4.0931,-4.0931,-4.0931,0,-4.0772,-4.0778,-4.0807,-4.0831,-4.0856,-4.0831,-4.0847,-4.0869,-4.0904,-4.0916,-4.094,-4.0977,-4.1006,-4.1005,-4.1031,-4.1054,-4.1043,-4.1062,-4.106,-4.1061,-4.0958,-4.0945,-4.107,-4.107,-4.107,-4.107,-4.107,-4.107,-4.0843,-4.0896,-4.0891,-4.0949,-4.0953,-4.0992,-4.1003,-4.1018,-4.1027,-4.1071,-4.1095,-4.1094,-4.1101,-4.1127,-4.1152,-4.1151,-4.1162,-4.1184,-4.1179,-4.1082,-4.1069,-4.1055,-4.1043,-4.1187,-4.1187,-4.128,-4.1281,-4.1281]}]]